Location: Beaurecueil
(43.5122°N, 5.5450°E)
Time: 10:04:38
(UTC+00:00)

Cosmos 1437 - Visible Passes

Search period start: 20 June 2021 00:00
Search period end: 30 June 2021 00:00
Orbit: 337 x 343 km, 81.2° (Epoch: 19 June)

Date Brightness Start Highest point End Pass type
(mag) Time Alt. Az. Time Alt. Az. Time Alt. Az.
20 Jun 3.4 01:53:32 10° NNW 01:55:51 31° W 01:55:51 31° W visible
21 Jun 4.5 00:44:13 10° NNE 00:46:31 22° ENE 00:46:35 22° ENE visible
21 Jun 4.9 02:17:29 10° WNW 02:17:58 11° WNW 02:17:58 11° WNW visible
22 Jun 3.0 01:06:21 10° N 01:08:40 55° NNE 01:08:40 55° NNE visible
23 Jun 4.0 01:29:06 10° NNW 01:30:45 24° WNW 01:30:45 24° WNW visible
24 Jun 4.6 00:19:32 10° NNE 00:21:25 23° NE 00:21:25 23° NE visible
25 Jun 3.8 00:41:36 10° N 00:43:27 37° N 00:43:27 37° N visible
26 Jun 4.6 01:04:16 10° NNW 01:05:27 19° NW 01:05:27 19° NW visible
26 Jun 4.7 23:54:30 10° NNE 23:56:03 22° NE 23:56:03 22° NE visible
28 Jun 4.3 00:16:27 10° N 00:18:00 29° N 00:18:00 29° N visible
28 Jun 5.5 23:08:32 10° ENE 23:08:33 10° ENE 23:08:33 10° ENE visible
29 Jun 4.9 00:39:01 10° NW 00:39:55 16° NW 00:39:55 16° NW visible
29 Jun 4.8 23:29:03 10° NNE 23:30:26 21° NE 23:30:26 21° NE visible
